NICK1: Arkansas River nr Nickerson, KS

Data processed at Fri Mar 09 2018 23:11


All information presented herein is the property of the government of the United States of America and may be revised or deleted at any time without prior notice.
Dissemination of this information without the expressed written consent of the Public Affairs Office, Tulsa District U.S. Army Corps of Engineers is strictly prohibited.
These data are gathered electronically and, as presented, have not undergone any form of quality control. These data are not guaranteed to be valid or correct.
Go to home page.
Go to station list.

Upstream stations:

Downstream station:
Previous Day
Next Day
Current Day
    
SHEF ID:       NICK1     ARKANSAS R NR NICKERSON, KS
STATION TYPE:  

               PRECIP     STAGE  RIV-FLOW   CONDUCT  BAT-LOAD
                   in        ft       cfs   umho/cm      volt
              Ccp-Rev   Ccp-Rev   Ccp-Rev   Ccp-Rev   Ccp-Rev
(US/Central)
03/07 00:00      0.00      8.83        80    153869     12.09
03/07 01:00      0.00      8.83        80    154168     12.09
03/07 02:00      0.00      8.83        80    153553     12.09
03/07 03:00      0.00      8.83        80    154643     12.01
03/07 04:00      0.00      8.83        80    154489     12.01
03/07 05:00      0.00      8.83        80    153715     12.01
03/07 06:00      0.00      8.83        80    154334     11.93
03/07 07:00      0.00      8.83        80    154800     11.93
03/07 08:00      0.00      8.83        80    154188     11.86
03/07 09:00      0.00      8.83        80     15449     11.86
03/07 10:00      0.00      8.83        80    154334     12.57
03/07 11:00      0.00      8.83        80    154177     12.81
03/07 12:00      0.00      8.83        80    154643     13.37
03/07 13:00      0.00      8.83        80    154177     13.60
03/07 14:00      0.00      8.83        80    154800     13.68
03/07 15:00      0.00      8.82        80    154480     13.76
03/07 16:00      0.00      8.82        80    154937     13.68
03/07 17:00      0.00      8.82        80    155113     13.60
03/07 18:00      0.00      8.82        80    154791     13.44
03/07 19:00      0.00      8.82        80    154791     13.13
03/07 20:00      0.00      8.83        80    154800     12.41
03/07 21:00      0.00      8.83        80    153851     12.17
03/07 22:00      0.00      8.83        80    154480     12.17
03/07 23:00      0.00      8.83        80    154177     12.17